| time (UTC) | temp C | wind direction | speed KPH | gust KPH | rain 1hr cm | rain 24hr cm | rain mn cm | humidity % | barometer mb |
| 20260831004515 | 19 | 347 | 4.8 | 14.5 | 0.00 | 0.08 | 0.00 | 76 | 1020.6 |
| 20260831003013 | 19 | 339 | 6.4 | 16.1 | 0.00 | 0.08 | 0.00 | 75 | 1020.9 |
| 20260831001511 | 19 | 355 | 6.4 | 16.1 | 0.00 | 0.08 | 0.00 | 76 | 1020.9 |
| 20260831000020 | 20 | 286 | 8.0 | 16.1 | 0.00 | 0.08 | 0.00 | 75 | 1020.9 |
| 20260830234507 | 20 | 330 | 8.0 | 16.1 | 0.00 | 0.08 | 0.00 | 76 | 1021.0 |
| 20260830233006 | 20 | 292 | 6.4 | 12.9 | 0.00 | 0.08 | 0.00 | 76 | 1021.1 |
| 20260830231505 | 19 | 334 | 8.0 | 16.1 | 0.00 | 0.08 | 0.00 | 78 | 1021.1 |
| 20260830230009 | 20 | 338 | 6.4 | 14.5 | 0.00 | 0.10 | 0.00 | 77 | 1021.2 |
| 20260830224502 | 20 | 300 | 0.0 | 12.9 | 0.00 | 0.10 | 0.00 | 76 | 1021.3 |
| 20260830223104 | 20 | 309 | 8.0 | 14.5 | 0.00 | 0.10 | 0.00 | 78 | 1021.6 |
| 20260830221610 | 19 | 326 | 8.0 | 16.1 | 0.00 | 0.10 | 0.00 | 77 | 1021.6 |
| 20260830220055 | 19 | 306 | 6.4 | 14.5 | 0.00 | 0.10 | 0.00 | 78 | 1021.8 |
| 20260830214553 | 19 | 338 | 6.4 | 12.9 | 0.00 | 0.10 | 0.00 | 77 | 1021.9 |
| 20260830213049 | 19 | 9 | 8.0 | 14.5 | 0.00 | 0.10 | 0.00 | 80 | 1022.1 |
| 20260830211549 | 18 | 316 | 4.8 | 12.9 | 0.00 | 0.10 | 0.00 | 80 | 1022.2 |
| 20260830210047 | 18 | 288 | 4.8 | 12.9 | 0.00 | 0.10 | 0.00 | 82 | 1022.3 |
| 20260830204545 | 18 | 262 | 4.8 | 9.7 | 0.00 | 0.10 | 0.00 | 87 | 1022.3 |
| 20260830203051 | 19 | 276 | 8.0 | 12.9 | 0.00 | 0.10 | 0.00 | 79 | 1022.3 |
| 20260830201558 | 18 | 315 | 0.0 | 12.9 | 0.00 | 0.10 | 0.00 | 79 | 1022.4 |
| 20260830200056 | 18 | 317 | 0.0 | 12.9 | 0.00 | 0.10 | 0.00 | 82 | 1022.5 |
| 20260830194548 | 18 | 308 | 1.6 | 6.4 | 0.00 | 0.10 | 0.00 | 83 | 1022.5 |
| 20260830193035 | 17 | 289 | 1.6 | 6.4 | 0.00 | 0.10 | 0.00 | 84 | 1022.7 |
| 20260830191535 | 17 | 284 | 3.2 | 9.7 | 0.00 | 0.10 | 0.00 | 85 | 1022.8 |
| 20260830190040 | 18 | 242 | 0.0 | 9.7 | 0.00 | 0.10 | 0.00 | 83 | 1022.8 |
| 20260830184533 | 17 | 308 | 3.2 | 14.5 | 0.00 | 0.10 | 0.00 | 86 | 1023.0 |
| 20260830183033 | 17 | 286 | 4.8 | 11.3 | 0.00 | 0.10 | 0.00 | 87 | 1022.9 |
| 20260830181533 | 18 | 273 | 0.0 | 8.0 | 0.00 | 0.10 | 0.00 | 80 | 1022.8 |
| 20260830180030 | 17 | 271 | 0.0 | 3.2 | 0.00 | 0.10 | 0.00 | 86 | 1022.8 |
| 20260830174527 | 17 | 309 | 0.0 | 4.8 | 0.00 | 0.10 | 0.00 | 90 | 1022.6 |
| 20260830173026 | 16 | 288 | 0.0 | 0.0 | 0.00 | 0.10 | 0.00 | 90 | 1022.8 |
| 20260830171526 | 16 | 268 | 0.0 | 4.8 | 0.00 | 0.10 | 0.00 | 93 | 1022.7 |
| 20260830170032 | 17 | 297 | 0.0 | 6.4 | 0.00 | 0.10 | 0.00 | 91 | 1022.6 |
| 20260830164543 | 17 | 309 | 0.0 | 0.0 | 0.00 | 0.10 | 0.00 | 88 | 1022.5 |
| 20260830163019 | 16 | 238 | 0.0 | 0.0 | 0.00 | 0.10 | 0.00 | 98 | 1022.6 |
| 20260830161515 | 15 | 238 | 0.0 | 0.0 | 0.00 | 0.10 | 0.00 | 100 | 1022.6 |
| 20260830160012 | 14 | 289 | 0.0 | 0.0 | 0.00 | 0.15 | 0.00 | 100 | 1022.6 |
| 20260830154511 | 13 | 290 | 0.0 | 0.0 | 0.00 | 0.15 | 0.00 | 100 | 1022.8 |
| 20260830153010 | 12 | 290 | 0.0 | 0.0 | 0.00 | 0.15 | 0.00 | 100 | 1022.9 |
| 20260830151503 | 12 | 290 | 0.0 | 0.0 | 0.00 | 0.15 | 0.00 | 100 | 1022.8 |
| 20260830150101 | 11 | 290 | 0.0 | 0.0 | 0.00 | 0.43 | 0.00 | 100 | 1022.9 |
| 20260830144558 | 10 | 290 | 0.0 | 0.0 | 0.00 | 0.43 | 0.00 | 100 | 1022.9 |
| 20260830143056 | 10 | 290 | 0.0 | 0.0 | 0.00 | 0.43 | 0.00 | 100 | 1022.8 |
| 20260830141556 | 10 | 290 | 0.0 | 0.0 | 0.00 | 0.43 | 0.00 | 100 | 1022.6 |
| 20260830140101 | 10 | 290 | 0.0 | 0.0 | 0.00 | 0.43 | 0.00 | 100 | 1022.4 |
| 20260830134600 | 10 | 290 | 0.0 | 0.0 | 0.00 | 0.43 | 0.00 | 100 | 1022.5 |
| 20260830133053 | 10 | 290 | 0.0 | 0.0 | 0.00 | 0.43 | 0.00 | 100 | 1022.5 |
| 20260830131551 | 10 | 290 | 0.0 | 0.0 | 0.00 | 0.43 | 0.00 | 100 | 1022.4 |
| 20260830130051 | 10 | 290 | 0.0 | 0.0 | 0.00 | 0.43 | 0.00 | 100 | 1022.5 |
| 20260830124550 | 10 | 290 | 0.0 | 0.0 | 0.00 | 0.43 | 0.00 | 100 | 1022.5 |
| 20260830123050 | 10 | 290 | 0.0 | 0.0 | 0.00 | 0.43 | 0.00 | 100 | 1022.5 |
| 20260830121548 | 9 | 290 | 0.0 | 0.0 | 0.00 | 0.43 | 0.00 | 100 | 1022.5 |
| 20260830120052 | 9 | 290 | 0.0 | 0.0 | 0.00 | 0.43 | 0.00 | 100 | 1022.8 |
| 20260830114547 | 8 | 290 | 0.0 | 0.0 | 0.00 | 0.43 | 0.00 | 100 | 1022.8 |
| 20260830113045 | 8 | 290 | 0.0 | 0.0 | 0.00 | 0.43 | 0.00 | 100 | 1022.7 |
| 20260830111544 | 9 | 290 | 0.0 | 0.0 | 0.00 | 0.43 | 0.00 | 100 | 1022.5 |
| 20260830110043 | 9 | 290 | 0.0 | 0.0 | 0.00 | 0.43 | 0.00 | 100 | 1022.7 |
| 20260830104541 | 10 | 290 | 0.0 | 0.0 | 0.00 | 0.43 | 0.00 | 100 | 1022.6 |
| 20260830103041 | 10 | 290 | 0.0 | 0.0 | 0.00 | 0.43 | 0.00 | 100 | 1022.6 |
| 20260830101540 | 10 | 290 | 0.0 | 0.0 | 0.00 | 0.43 | 0.00 | 100 | 1022.6 |
| 20260830100054 | 10 | 290 | 0.0 | 0.0 | 0.00 | 0.43 | 0.00 | 100 | 1022.6 |
| 20260830094538 | 10 | 290 | 0.0 | 0.0 | 0.00 | 0.43 | 0.00 | 100 | 1022.6 |
| 20260830093037 | 10 | 290 | 0.0 | 0.0 | 0.00 | 0.43 | 0.00 | 100 | 1022.6 |
| 20260830091535 | 10 | 290 | 0.0 | 0.0 | 0.00 | 0.43 | 0.00 | 100 | 1022.7 |
| 20260830090035 | 10 | 290 | 0.0 | 0.0 | 0.00 | 0.51 | 0.00 | 100 | 1022.7 |
| 20260830084535 | 9 | 290 | 0.0 | 0.0 | 0.00 | 0.51 | 0.00 | 100 | 1022.7 |
| 20260830083036 | 9 | 290 | 0.0 | 0.0 | 0.00 | 0.51 | 0.00 | 100 | 1022.8 |
| 20260830081532 | 9 | 290 | 0.0 | 0.0 | 0.00 | 0.51 | 0.00 | 100 | 1022.7 |
| 20260830080031 | 10 | 290 | 0.0 | 0.0 | 0.00 | 0.51 | 0.00 | 100 | 1022.7 |
| 20260830074529 | 10 | 290 | 0.0 | 0.0 | 0.00 | 0.51 | 0.00 | 100 | 1022.8 |
| 20260830073027 | 10 | 290 | 0.0 | 0.0 | 0.00 | 0.51 | 0.00 | 100 | 1022.9 |
| 20260830071534 | 10 | 290 | 0.0 | 0.0 | 0.00 | 0.51 | 0.00 | 100 | 1022.8 |
| 20260830070023 | 10 | 290 | 0.0 | 0.0 | 0.00 | 0.51 | 0.51 | 100 | 1023.0 |
| 20260830064522 | 10 | 290 | 0.0 | 0.0 | 0.03 | 0.51 | 0.51 | 100 | 1022.9 |
| 20260830063024 | 11 | 290 | 0.0 | 0.0 | 0.03 | 0.51 | 0.51 | 100 | 1023.0 |
| 20260830061521 | 11 | 290 | 0.0 | 0.0 | 0.03 | 0.51 | 0.51 | 100 | 1023.0 |
| 20260830060019 | 11 | 290 | 0.0 | 0.0 | 0.03 | 0.51 | 0.51 | 100 | 1023.0 |
| 20260830054517 | 11 | 290 | 0.0 | 0.0 | 0.00 | 0.48 | 0.48 | 100 | 1023.1 |
| 20260830053018 | 11 | 290 | 0.0 | 0.0 | 0.00 | 0.48 | 0.48 | 100 | 1023.2 |
| 20260830051514 | 11 | 290 | 0.0 | 0.0 | 0.00 | 0.48 | 0.48 | 100 | 1023.2 |
| 20260830050011 | 11 | 290 | 0.0 | 0.0 | 0.00 | 0.48 | 0.48 | 100 | 1023.3 |
| 20260830044511 | 12 | 290 | 0.0 | 0.0 | 0.00 | 0.48 | 0.48 | 100 | 1023.2 |
| 20260830043010 | 12 | 290 | 0.0 | 0.0 | 0.00 | 0.48 | 0.48 | 100 | 1023.1 |
| 20260830041511 | 12 | 290 | 0.0 | 0.0 | 0.00 | 0.48 | 0.48 | 100 | 1023.1 |
| 20260830040007 | 13 | 290 | 0.0 | 0.0 | 0.00 | 0.48 | 0.48 | 99 | 1022.7 |
| 20260830034507 | 13 | 290 | 0.0 | 0.0 | 0.00 | 0.48 | 0.48 | 99 | 1022.7 |
| 20260830033006 | 14 | 290 | 0.0 | 0.0 | 0.00 | 0.48 | 0.48 | 98 | 1022.6 |
| 20260830031506 | 14 | 290 | 0.0 | 0.0 | 0.00 | 0.48 | 0.48 | 98 | 1022.6 |
| 20260830030009 | 15 | 290 | 0.0 | 0.0 | 0.05 | 0.48 | 0.48 | 97 | 1022.6 |
| 20260830024505 | 15 | 290 | 0.0 | 0.0 | 0.05 | 0.48 | 0.48 | 96 | 1022.5 |
| 20260830023005 | 15 | 292 | 1.6 | 4.8 | 0.05 | 0.48 | 0.48 | 96 | 1022.5 |
| 20260830021504 | 16 | 293 | 1.6 | 14.5 | 0.05 | 0.48 | 0.48 | 93 | 1022.5 |
| 20260830020003 | 16 | 317 | 3.2 | 11.3 | 0.00 | 0.43 | 0.43 | 89 | 1022.6 |
| 20260830014503 | 16 | 282 | 3.2 | 9.7 | 0.00 | 0.43 | 0.43 | 87 | 1022.5 |
| 20260830013002 | 17 | 294 | 4.8 | 11.3 | 0.00 | 0.43 | 0.43 | 83 | 1022.4 |
| 20260830011501 | 17 | 248 | 4.8 | 14.5 | 0.00 | 0.43 | 0.43 | 83 | 1022.6 |
| 20260830010108 | 18 | 303 | 4.8 | 12.9 | 0.00 | 0.43 | 0.43 | 84 | 1022.7 |